User: anonymous   Login
Location: Brainerd
(46.3580°N, 94.2010°W)
Time: 11:22:49
(UTC-06:00)
Language:

CZ-4C R/B - Orbit

View from above orbital plane
View from above orbital plane
View from above satellite
View from above satellite

Ground track
Ground track

The orbit data is extracted from the following two-line orbital elements,

1 32290U 07055B   16038.18999783  .00006558  00000-0  20219-3 0  9996
2 32290  97.5297 129.7286 0074595  96.8255 264.1480 15.31198062455822
Epoch (UTC): 07 February 2016 04:33:35
Eccentricity: 0.0074595
inclination: 97.5297°
perigee height: 421 km
apogee height: 523 km
right ascension of ascending node: 129.7286°
argument of perigee: 96.8255°
revolutions per day: 15.31198062
mean anomaly at epoch: 264.1480°
orbit number at epoch: 45582

The dashed part of the orbit path shows where the satellite is in the earth's shadow,  

DLR